www.pogodaiklimat.ru

Погода и климат >> Архив погоды >> Южная Африка >> Vioolsdrif


ПОГОДА в Vioolsdrif

  • Прогноз погоды в Vioolsdrif
  • Монитор погоды в Vioolsdrif
  • Климат города

АРХИВ ПОГОДЫ в Vioolsdrif

Время (UTC), дата Ветер
(напр.,м/с)
 
Видим.   Явления Облачность Т
(С)
Тd
(С)
f
(%)
Тe
(С)
Тes
(С)
Комфортность P
(гПа)
Po
(гПа)
Тmin
(С)
Tmax
(С)
R
(мм)
R24
(мм)
S
(см)
12 11.12 Ю 4 н/о н/о +35.6 +1.1 11 +32 +32 жарко 856.3 987.5 +21.9 +37.3
15 11.12 Ю 7 н/о н/о +30.7 +3.2 17 +28 +28 жарко 855.0 988.5 +30.1 +37.3
18 11.12 Ю 5 н/о н/о +26.0 +5.0 26 +24 +24 комфорт 854.9 990.7 +26.0 +37.3
21 11.12 Ю 3 н/о н/о +21.9 +5.5 34 +22 +22 комфорт 854.3 992.1 +21.9 +37.3
00 12.12 Ю 3 н/о н/о +20.0 +3.8 34 +21 +21 комфорт 852.6 991.2 +20.0 +37.3
03 12.12 ЮВ 3 н/о н/о +18.2 +6.8 47 +18 +18 851.6 991.1 +18.1 +37.3
06 12.12 С 1 н/о н/о +21.3 +8.0 42 +22 +22 комфорт 854.7 992.9 +17.7
09 12.12 С 3 н/о н/о +26.3 +3.8 23 +25 +25 комфорт 856.6 992.4 +17.7 +26.8
12 12.12 С 5 н/о н/о +32.4 +2.8 15 +30 +30 жарко 856.6 989.4 +17.7 +32.8
15 12.12 Ю 5 н/о н/о +29.8 +5.4 21 +28 +28 жарко 854.8 988.7 +29.8 +33.8
18 12.12 Ю 7 н/о н/о +24.5 +4.5 27 +24 +24 комфорт 853.5 989.9 +24.5 +33.8
21 12.12 ЮЗ 2 н/о н/о +21.6 +3.4 30 +22 +22 комфорт 854.4 992.4 +21.6 +33.8
00 13.12 В 1 н/о н/о +18.6 +5.2 41 +20 +20 853.4 992.8 +18.5 +33.8
03 13.12 ЮЗ 2 н/о н/о +16.8 +4.2 43 +17 +17 852.7 993.0 +16.8 +33.8
06 13.12 С 1 н/о н/о +20.6 +4.3 34 +22 +22 комфорт 856.1 994.8 +15.8
09 13.12 СВ 1 н/о н/о +26.2 +1.0 19 +24 +24 комфорт 858.0 994.0 +15.8 +26.8
12 13.12 ЮВ 5 н/о н/о +30.8 +1.5 15 +28 +28 жарко 858.5 992.2 +15.8 +31.6
15 13.12 Ю 5 н/о н/о +28.9 +6.0 23 +28 +28 жарко 856.9 991.4 +28.4 +32.2
18 13.12 Ю 5 н/о н/о +24.4 +5.9 30 +24 +24 комфорт 857.1 993.9 +24.4 +32.2
21 13.12 Ю 4 н/о н/о +20.7 +7.8 43 +22 +22 комфорт 857.5 996.3 +20.7 +32.2
00 14.12 Ю 1 н/о н/о +19.9 +7.7 45 +22 +22 комфорт 856.2 995.3 +19.8 +32.2
03 14.12 Ю 3 н/о н/о +19.0 +8.1 49 +20 +20 855.9 995.4 +18.9 +32.2
06 14.12 СЗ 2 н/о н/о +22.4 +9.0 42 +24 +24 комфорт 859.0 997.1 +17.5
09 14.12 В 2 н/о н/о +26.8 +7.0 28 +26 +26 жарко 859.7 995.5 +17.5 +27.0
12 14.12 Ю 3 н/о н/о +31.4 +5.3 19 +29 +29 жарко 859.6 993.1 +17.5 +31.6
15 14.12 С 2 н/о н/о +34.2 +2.3 13 +31 +31 жарко 858.0 990.0 +31.0 +34.8
18 14.12 Ю 5 н/о н/о +30.6 +8.0 24 +30 +30 жарко 856.1 989.7 +30.6 +35.5
21 14.12 ЮВ 4 н/о н/о +28.0 +8.1 29 +28 +28 жарко 856.3 991.2 +28.0 +35.5
00 15.12 СЗ 2 н/о н/о +24.5 +9.0 37 +25 +25 комфорт 854.8 991.4 +24.5 +35.5
03 15.12 СЗ 1 н/о н/о +22.6 +10.5 46 +24 +24 комфорт 853.9 991.4 +22.6 +35.5
06 15.12 Ю 2 н/о н/о +29.2 +5.6 22 +28 +28 жарко 858.1 992.6 +22.5
09 15.12 ЮЗ 2 н/о н/о +35.2 +4.1 14 +32 +32 жарко 858.9 990.5 +22.5 +35.2
12 15.12 СЗ 3 н/о н/о +42.0 +1.6 8 +38 +38 очень
жарко
859.2 987.6 +22.5 +42.1
15 15.12 СВ 1 н/о н/о +42.2 -0.0 7 +38 +38 очень
жарко
856.3 984.5 +40.8 +44.0
18 15.12 Ю 4 н/о н/о +34.4 +3.5 14 +31 +31 жарко 853.9 985.6 +34.4 +44.0
21 15.12 Ю 2 н/о н/о +31.2 +3.6 17 +29 +29 жарко 855.0 988.3 +31.2 +44.0
00 16.12 З 7 н/о н/о +26.1 +6.4 28 +26 +26 жарко 853.8 989.5 +26.1 +44.0
03 16.12 ЮЗ 3 н/о н/о +23.0 +8.1 38 +24 +24 комфорт 852.7 989.8 +23.0 +44.0
06 16.12 ЮЗ 3 н/о н/о +23.7 +9.1 39 +24 +24 комфорт 855.1 992.1 +21.0
09 16.12 С 2 н/о н/о +29.8 +8.5 26 +29 +29 жарко 856.6 990.7 +21.0 +29.9
12 16.12 Ю 3 н/о н/о +35.3 +5.2 15 +33 +33 жарко 857.2 988.6 +21.0 +37.1
15 16.12 Ю 8 н/о н/о +29.2 +9.6 29 +29 +29 жарко 854.3 988.5 +29.2 +37.1
18 16.12 Ю 5 н/о н/о +25.5 +8.7 34 +26 +26 жарко 854.5 990.5 +25.5 +37.1
21 16.12 ЮЗ 5 н/о н/о +19.7 +12.0 61 +21 +21 комфорт 854.0 993.0 +19.7 +37.1
00 17.12 ЮЗ 3 н/о н/о +19.2 +11.1 59 +20 +20 852.9 992.0 +19.1 +37.1
03 17.12 ЮЗ 6 н/о н/о +17.9 +10.3 61 +17 +17 852.5 992.2 +17.9 +37.1
06 17.12 СЗ 2 н/о н/о +22.5 +9.8 44 +24 +24 комфорт 855.6 993.3 +17.9
09 17.12 ЮВ 2 н/о н/о +27.4 +9.0 31 +27 +27 жарко 857.0 992.3 +17.9 +27.8
12 17.12 Ю 4 н/о н/о +29.4 +9.3 29 +29 +29 жарко 856.6 990.9 +17.9 +29.4
15 17.12 ЮЗ 7 н/о н/о +26.2 +8.9 34 +27 +27 жарко 854.7 990.4 +26.0 +29.4
18 17.12 ЮЗ 5 н/о н/о +21.4 +10.4 49 +23 +23 комфорт 854.8 993.0 +21.3 +29.4
21 17.12 Ю 4 н/о н/о +18.6 +9.5 55 +19 +19 855.7 995.4 +18.6 +29.4
00 18.12 З 2 н/о н/о +17.9 +10.1 60 +19 +19 854.5 994.5 +17.9 +29.4
03 18.12 Ю 3 н/о н/о +18.0 +9.9 59 +18 +18 855.6 995.6 +17.8 +29.4
06 18.12 С 2 н/о н/о +21.4 +10.0 48 +23 +23 комфорт 857.6 996.1 +17.8
09 18.12 СЗ 2 н/о н/о +26.8 +9.0 33 +27 +27 жарко 859.4 995.2 +17.8 +26.8

 

Местоположение метеостанции Vioolsdrif (Южная Африка): широта -28.70 долгота 17.60 высота над уровнем моря 168 м.

В архиве по умолчанию представлена погода в Vioolsdrif за последнюю неделю. Архивные данные за месяц целиком и за предыдущие месяцы, начиная с января 2011 года, Вы можете получить, выбрав интересующий диапазон дат из раскрывающегося списка и нажав кнопку "Ввод!".

Внимание! Время в таблицах - всемирное. Для получения местного времени необходимо прибавить поправку, которая в Vioolsdrif равна 2 ч.

Смотрите также архив погоды в соседних городах и на ближайших метеорологических станциях:

Погода в Port Nolloth (Южная Африка) (92 км)
Погода в Alexander Bay (Южная Африка) (106 км)
Погода в Springbok (Южная Африка) (111 км)
Погода в Koingnaas (Южная Африка) (170 км)
Погода в Pofadder (Южная Африка) (180 км)
Погода в Porterville (Южная Африка) (198 км)
Погода в Keetmanshoop (Намибия) (247 км)
Погода в Augrabies Falls (Южная Африка) (268 км)
Погода в Nieuwoudtville (Южная Африка) (327 км)
Погода в Luderitz Diaz Point (Намибия) (337 км)

Пояснения к столбцам:

Ветер - указаны скорость ветра в м/с - средняя за 10 мин, порывы в срок и между сроками (в фигурных скобках) и направление, откуда дует ветер: С - северный, СВ - северо-восточный, В - восточный, ЮВ - юго-восточный, Ю - южный, ЮЗ - юго-западный, З - западный, СЗ - северо-западный.
Видимость - горизонтальная дальность видимости в метрах или километрах. При видимости от 1 до 10 км при отсутствии осадков обычно наблюдается дымка, при ухудшении видимости до 1 км и менее - туман. В сухую погоду видимость может ухудшаться дымом, пылью или мглою.
Явления - указаны атмосферные явления, наблюдавшиеся в срок или в последний час перед сроком; фигурными скобками обозначены явления, наблюдавшиеся между сроками (за 1-3 часа до срока); квадратными скобками обозначены град или гололедные отложения с указанием их диаметра в мм.
Облачность - указаны через наклонную черту общая и нижняя облачность в баллах и высота нижней границы облаков в метрах; квадратными скобками обозначены формы облаков: Ci - перистые, Cs - перисто-слоистые, Cc - перисто-кучевые, Ac - высококучевые, As - высокослоистые, Sc - слоисто-кучевые, Ns - слоисто-дождевые, Cu - кучевые, Cb - кучево-дождевые. Подробнее классификацию облаков см. в Атласе облаков (PDF).
T - Температура воздуха - температура, измеренная на высоте 2 м над землей.
Td - Температура точки росы - температура, при понижении до которой содержащийся в воздухе водяной пар достигнет насыщения.
f - Относительная влажность воздуха - влажноcть воздуха, измеренная на высоте 2 м над землей.
Te - Эффективная температура - температура, которую ощущает одетый по сезону человек в тени. Характеристика душности погоды. При расчете учитывается влияние влажности воздуха и скорости ветра на теплоощущения человека.
Tes - Эффективная температура на солнце - температура, которую ощущает человек, с поправкой на солнечный нагрев. Характеристика знойности погоды. Зависит от высоты солнца над горизонтом, облачности и скорости ветра. Ночью, в пасмурную погоду, а также при ветре 12 м/с и более поправка равна нулю.
P - Атмосферное давление - приведенное к уровню моря атмосферное давление.
Po - Атмосферное давление - измеренное на уровне метеостанции атмосферное давление.
Tmin - Минимальная температура - минимум температуры воздуха на высоте 2 м над землей.
Tmax - Максимальная температура - максимум температуры воздуха на высоте 2 м над землей.
R - Количество осадков - Количество выпавших осадков за период времени, мм. При наведении курсора мыши на число - период времени, за который выпало указанное количество осадков.
R24 - Количество осадков - Количество выпавших осадков за 24 часа, мм.
S - Снежный покров - Высота снежного покрова, см. При наведении курсора мыши на число - состояние снежного покрова и степень покрытия местности в баллах.